This is the latest recevied weather packets stored in our database for station/object W6SNO-1. If no packets are shown the sender has not sent any weather packets the latest 10 day(s).
| Time | Temp. | Humidity | Pressure | Rain* | Wind** | Luminosity | Snow |
|---|---|---|---|---|---|---|---|
| 1778176371 | 15.56° C | 84% | 1019.4 hPa | 0 mm | - | 295 W/m² | - |
| 1778176069 | 15.56° C | 84% | 1019.4 hPa | 0 mm | - | 283 W/m² | - |
| 1778175767 | 15° C | 85% | 1019.4 hPa | 0 mm | - | 289 W/m² | - |
| 1778175464 | 14.44° C | 86% | 1019.4 hPa | 0 mm | - | 263 W/m² | - |
| 1778175161 | 14.44° C | 87% | 1019.4 hPa | 0 mm | - | 242 W/m² | - |
| 1778174857 | 15° C | 86% | 1019.4 hPa | 0 mm | - | 228 W/m² | - |
| 1778174554 | 15° C | 86% | 1019.4 hPa | 0 mm | - | 220 W/m² | - |
| 1778174254 | 15° C | 86% | 1019.4 hPa | 0 mm | - | 208 W/m² | - |
| 1778173952 | 15° C | 86% | 1019.4 hPa | 0 mm | - | 187 W/m² | - |
| 1778173649 | 14.44° C | 87% | 1019.4 hPa | 0 mm | - | 175 W/m² | - |
| 1778173346 | 14.44° C | 87% | 1019.2 hPa | 0 mm | - | 166 W/m² | - |
| 1778173041 | 14.44° C | 87% | 1019.3 hPa | 0 mm | - | 165 W/m² | - |
| 1778172738 | 14.44° C | 89% | 1019.3 hPa | 0 mm | - | 154 W/m² | - |
| 1778172434 | 13.89° C | 89% | 1019.3 hPa | 0 mm | - | 147 W/m² | - |
| 1778172131 | 13.89° C | 90% | 1019.4 hPa | 0 mm | - | 137 W/m² | - |
| 1778171828 | 13.89° C | 90% | 1019.4 hPa | 0 mm | - | 125 W/m² | - |
| 1778171526 | 13.89° C | 90% | 1019.4 hPa | 0 mm | - | 113 W/m² | - |
| 1778171222 | 13.89° C | 90% | 1019.4 hPa | 0 mm | - | 107 W/m² | - |
| 1778170918 | 13.89° C | 91% | 1019.5 hPa | 0 mm | - | 100 W/m² | - |
| 1778170614 | 13.33° C | 90% | 1019.4 hPa | 0 mm | - | 95 W/m² | - |
| 1778170311 | 13.89° C | 90% | 1019.4 hPa | 0 mm | - | 95 W/m² | - |
| 1778170007 | 13.89° C | 91% | 1019.1 hPa | 0 mm | - | 89 W/m² | - |
| 1778169704 | 13.89° C | 91% | 1019.5 hPa | 0 mm | - | 87 W/m² | - |
| 1778169400 | 13.33° C | 92% | 1019.2 hPa | 0 mm | - | 77 W/m² | - |
| 1778169096 | 13.33° C | 92% | 1019.4 hPa | 0 mm | - | 75 W/m² | - |
* Rain latest hour (hover to see other rain measurements)
** Current wind speed in m/s (hover to see current wind gust speed)